Location: Austin
(30.3000°N, 97.7500°W)
Time: 11:32:34
(UTC-05:00)

Cosmos 2278 Rocket - Pass Details

Date: 26 May 2023
Orbit: 841 x 845 km, 71.0° (Epoch: 30 May)

Event Time Altitude Azimuth Distance (km) Brightness Sun altitude
Rises 23:25:08 0° 341° (NNW) 3,404 6.4 -30.6°
Reaches altitude 10° 23:27:35 10° 342° (NNW) 2,466 5.5 -30.9°
Enters shadow 23:32:10 60° 349° (N) 962 2.6 -31.4°
